Time,TemperatureF,DewpointF,PressureIn,WindDirection,WindDirectionDegrees,WindSpeedMPH,WindSpeedGustMPH,Humidity,HourlyPrecipIn,Conditions,Clouds,dailyrainin,SoftwareType,DateUTC
2013-01-25 00:00:00,15.1,0.2,30.39,NNW,330,6.0,11.0,51,0.00,,---,0.00,VWS V14.00,2013-01-25 05:00:00,
2013-01-25 00:02:00,15.1,0.2,30.40,North,355,7.0,9.0,51,0.00,,---,0.00,VWS V14.00,2013-01-25 05:02:00,
2013-01-25 00:04:00,15.1,0.2,30.40,NNW,331,9.0,13.0,51,0.00,,---,0.00,VWS V14.00,2013-01-25 05:04:00,
2013-01-25 00:09:00,15.0,0.2,30.40,NW,323,6.0,13.0,51,0.00,,---,0.00,VWS V14.00,2013-01-25 05:09:00,
2013-01-25 00:14:00,14.9,0.5,30.40,NNW,341,11.0,13.0,52,0.00,,---,0.00,VWS V14.00,2013-01-25 05:14:00,
2013-01-25 00:19:00,14.9,0.5,30.40,NNW,329,10.0,17.0,52,0.00,,---,0.00,VWS V14.00,2013-01-25 05:19:00,
2013-01-25 00:24:00,14.8,0.4,30.39,NW,319,10.0,19.0,52,0.00,,---,0.00,VWS V14.00,2013-01-25 05:24:00,
2013-01-25 00:29:00,14.8,0.4,30.39,NW,325,8.0,21.0,52,0.00,,---,0.00,VWS V14.00,2013-01-25 05:29:00,
2013-01-25 00:34:00,14.6,0.6,30.40,NNW,338,6.0,21.0,53,0.00,,---,0.00,VWS V14.00,2013-01-25 05:34:00,
2013-01-25 00:39:00,14.5,0.5,30.40,NNW,327,4.0,21.0,53,0.00,,---,0.00,VWS V14.00,2013-01-25 05:39:00,
2013-01-25 00:44:00,14.4,0.4,30.40,NW,317,8.0,21.0,53,0.00,,---,0.00,VWS V14.00,2013-01-25 05:44:00,
2013-01-25 00:49:00,14.4,0.8,30.40,NNW,329,11.0,21.0,54,0.00,,---,0.00,VWS V14.00,2013-01-25 05:49:00,
2013-01-25 00:54:00,14.3,0.7,30.40,NNW,342,6.0,21.0,54,0.00,,---,0.00,VWS V14.00,2013-01-25 05:54:00,
2013-01-25 00:59:00,14.3,0.7,30.40,NNW,345,6.0,13.0,54,0.00,,---,0.00,VWS V14.00,2013-01-25 05:59:00,
2013-01-25 01:04:00,14.2,0.6,30.40,NW,319,0.0,13.0,54,0.00,,---,0.00,VWS V14.00,2013-01-25 06:04:00,
2013-01-25 01:09:00,14.2,1.0,30.40,NNW,331,6.0,13.0,55,0.00,,---,0.00,VWS V14.00,2013-01-25 06:09:00,
2013-01-25 01:14:00,14.1,0.5,30.40,NNW,333,4.0,13.0,54,0.00,,---,0.00,VWS V14.00,2013-01-25 06:14:00,
2013-01-25 01:19:00,14.0,0.8,30.40,North,355,0.0,13.0,55,0.00,,---,0.00,VWS V14.00,2013-01-25 06:19:00,
2013-01-25 01:24:00,13.9,0.7,30.41,NW,316,5.0,13.0,55,0.00,,---,0.00,VWS V14.00,2013-01-25 06:24:00,
2013-01-25 01:29:00,14.0,0.8,30.41,NNW,333,8.0,13.0,55,0.00,,---,0.00,VWS V14.00,2013-01-25 06:29:00,
2013-01-25 01:34:00,14.0,0.8,30.41,NW,320,4.0,13.0,55,0.00,,---,0.00,VWS V14.00,2013-01-25 06:34:00,
2013-01-25 01:39:00,14.1,0.9,30.40,NNW,345,4.0,13.0,55,0.00,,---,0.00,VWS V14.00,2013-01-25 06:39:00,
2013-01-25 01:44:00,14.1,1.3,30.41,NNW,332,2.0,13.0,56,0.00,,---,0.00,VWS V14.00,2013-01-25 06:44:00,
2013-01-25 01:49:00,14.1,1.3,30.41,NNW,330,0.0,13.0,56,0.00,,---,0.00,VWS V14.00,2013-01-25 06:49:00,
2013-01-25 01:54:00,14.1,1.3,30.41,NNW,330,0.0,13.0,56,0.00,,---,0.00,VWS V14.00,2013-01-25 06:54:00,
2013-01-25 01:59:00,14.1,1.3,30.42,NNW,342,6.0,11.0,56,0.00,,---,0.00,VWS V14.00,2013-01-25 06:59:00,
2013-01-25 02:04:00,14.1,1.3,30.41,WNW,298,8.0,11.0,56,0.00,,---,0.00,VWS V14.00,2013-01-25 07:04:00,
2013-01-25 02:09:00,14.1,1.3,30.41,NW,320,0.0,11.0,56,0.00,,---,0.00,VWS V14.00,2013-01-25 07:09:00,
2013-01-25 02:15:00,14.1,1.3,30.41,NNW,333,1.0,11.0,56,0.00,,---,0.00,VWS V14.00,2013-01-25 07:15:00,
2013-01-25 02:20:00,14.1,1.3,30.41,NW,325,4.0,11.0,56,0.00,,---,0.00,VWS V14.00,2013-01-25 07:20:00,
2013-01-25 02:25:00,14.0,1.6,30.41,NW,325,2.0,11.0,57,0.00,,---,0.00,VWS V14.00,2013-01-25 07:25:00,
2013-01-25 02:30:00,14.0,1.6,30.41,NNW,329,9.0,11.0,57,0.00,,---,0.00,VWS V14.00,2013-01-25 07:30:00,
2013-01-25 02:35:00,14.1,1.7,30.41,NW,323,4.0,14.0,57,0.00,,---,0.00,VWS V14.00,2013-01-25 07:35:00,
2013-01-25 02:40:00,14.1,1.7,30.41,NW,325,5.0,14.0,57,0.00,,---,0.00,VWS V14.00,2013-01-25 07:40:00,
2013-01-25 02:45:00,14.1,1.7,30.41,NNW,329,5.0,14.0,57,0.00,,---,0.00,VWS V14.00,2013-01-25 07:45:00,
2013-01-25 02:50:00,14.1,2.0,30.41,NNW,329,6.0,14.0,58,0.00,,---,0.00,VWS V14.00,2013-01-25 07:50:00,
2013-01-25 02:55:00,14.1,2.0,30.40,NW,325,8.0,14.0,58,0.00,,---,0.00,VWS V14.00,2013-01-25 07:55:00,
2013-01-25 03:00:00,14.1,2.0,30.39,NW,324,7.0,10.0,58,0.00,,---,0.00,VWS V14.00,2013-01-25 08:00:00,
2013-01-25 03:05:00,14.0,2.0,30.40,NNW,338,5.0,10.0,58,0.00,,---,0.00,VWS V14.00,2013-01-25 08:05:00,
2013-01-25 03:10:00,14.1,2.0,30.39,North,355,2.0,10.0,58,0.00,,---,0.00,VWS V14.00,2013-01-25 08:10:00,
2013-01-25 03:15:00,14.1,1.7,30.39,NNW,340,7.0,10.0,57,0.00,,---,0.00,VWS V14.00,2013-01-25 08:15:00,
2013-01-25 03:20:00,14.1,2.0,30.39,NNW,337,6.0,12.0,58,0.00,,---,0.00,VWS V14.00,2013-01-25 08:20:00,
2013-01-25 03:25:00,14.1,2.0,30.39,NNW,328,8.0,12.0,58,0.00,,---,0.00,VWS V14.00,2013-01-25 08:25:00,
2013-01-25 03:30:00,14.1,2.0,30.40,NNW,332,4.0,13.0,58,0.00,,---,0.00,VWS V14.00,2013-01-25 08:30:00,
2013-01-25 03:35:00,14.2,2.2,30.40,NNW,342,12.0,13.0,58,0.00,,---,0.00,VWS V14.00,2013-01-25 08:35:00,
2013-01-25 03:40:00,14.2,1.8,30.40,North,360,3.0,13.0,57,0.00,,---,0.00,VWS V14.00,2013-01-25 08:40:00,
2013-01-25 03:45:00,14.1,2.4,30.40,NW,319,6.0,13.0,59,0.00,,---,0.00,VWS V14.00,2013-01-25 08:45:00,
2013-01-25 03:50:00,14.1,2.4,30.40,NW,310,6.0,13.0,59,0.00,,---,0.00,VWS V14.00,2013-01-25 08:50:00,
2013-01-25 03:55:00,13.9,1.9,30.40,NW,311,8.0,13.0,58,0.00,,---,0.00,VWS V14.00,2013-01-25 08:55:00,
2013-01-25 04:00:00,13.9,2.2,30.40,NW,317,6.0,7.0,59,0.00,,---,0.00,VWS V14.00,2013-01-25 09:00:00,
2013-01-25 04:05:00,13.9,2.2,30.40,NNW,336,0.0,7.0,59,0.00,,---,0.00,VWS V14.00,2013-01-25 09:05:00,
2013-01-25 04:10:00,13.8,2.1,30.40,WNW,299,4.0,8.0,59,0.00,,---,0.00,VWS V14.00,2013-01-25 09:10:00,
2013-01-25 04:15:00,13.7,2.0,30.40,NNW,335,6.0,8.0,59,0.00,,---,0.00,VWS V14.00,2013-01-25 09:15:00,
2013-01-25 04:20:00,13.7,2.4,30.40,NNW,335,2.0,8.0,60,0.00,,---,0.00,VWS V14.00,2013-01-25 09:20:00,
2013-01-25 04:25:00,13.7,2.4,30.40,NW,324,4.0,8.0,60,0.00,,---,0.00,VWS V14.00,2013-01-25 09:25:00,
2013-01-25 04:30:00,13.7,2.4,30.40,NW,324,1.0,5.0,60,0.00,,---,0.00,VWS V14.00,2013-01-25 09:30:00,
2013-01-25 04:35:00,13.6,2.3,30.41,NW,324,0.0,5.0,60,0.00,,---,0.00,VWS V14.00,2013-01-25 09:35:00,
2013-01-25 04:40:00,13.5,2.2,30.41,NW,324,0.0,5.0,60,0.00,,---,0.00,VWS V14.00,2013-01-25 09:40:00,
2013-01-25 04:45:00,13.5,2.2,30.41,NW,324,0.0,5.0,60,0.00,,---,0.00,VWS V14.00,2013-01-25 09:45:00,
2013-01-25 04:50:00,13.4,2.1,30.41,NW,324,0.0,5.0,60,0.00,,---,0.00,VWS V14.00,2013-01-25 09:50:00,
2013-01-25 04:55:00,13.4,2.5,30.41,NW,324,1.0,5.0,61,0.00,,---,0.00,VWS V14.00,2013-01-25 09:55:00,
2013-01-25 05:00:00,13.4,2.5,30.41,NW,324,0.0,2.0,61,0.00,,---,0.00,VWS V14.00,2013-01-25 10:00:00,
2013-01-25 05:05:00,13.4,2.8,30.41,NW,324,0.0,5.0,62,0.00,,---,0.00,VWS V14.00,2013-01-25 10:05:00,
2013-01-25 05:10:00,13.4,2.5,30.40,NW,324,0.0,5.0,61,0.00,,---,0.00,VWS V14.00,2013-01-25 10:10:00,
2013-01-25 05:15:00,13.4,2.5,30.41,NW,324,0.0,5.0,61,0.00,,---,0.00,VWS V14.00,2013-01-25 10:15:00,
2013-01-25 05:21:00,13.3,2.7,30.40,NW,324,0.0,5.0,62,0.00,,---,0.00,VWS V14.00,2013-01-25 10:21:00,
2013-01-25 05:25:00,13.3,2.7,30.40,NW,324,0.0,5.0,62,0.00,,---,0.00,VWS V14.00,2013-01-25 10:25:00,
2013-01-25 05:31:00,13.2,2.6,30.40,NW,324,0.0,0.0,62,0.00,,---,0.00,VWS V14.00,2013-01-25 10:31:00,
2013-01-25 05:36:00,13.2,2.6,30.41,NW,324,0.0,0.0,62,0.00,,---,0.00,VWS V14.00,2013-01-25 10:36:00,
2013-01-25 05:41:00,13.2,2.6,30.41,NW,324,0.0,2.0,62,0.00,,---,0.00,VWS V14.00,2013-01-25 10:41:00,
2013-01-25 05:46:00,13.2,2.6,30.40,SW,221,2.0,2.0,62,0.00,,---,0.00,VWS V14.00,2013-01-25 10:46:00,
2013-01-25 05:51:00,13.1,2.5,30.41,SW,221,0.0,2.0,62,0.00,,---,0.00,VWS V14.00,2013-01-25 10:51:00,
2013-01-25 05:56:00,13.1,2.9,30.41,SW,221,0.0,2.0,63,0.00,,---,0.00,VWS V14.00,2013-01-25 10:56:00,
2013-01-25 06:01:00,13.0,2.8,30.41,SW,221,0.0,0.0,63,0.00,,---,0.00,VWS V14.00,2013-01-25 11:01:00,
2013-01-25 06:06:00,12.9,2.7,30.40,West,273,0.0,2.0,63,0.00,,---,0.00,VWS V14.00,2013-01-25 11:06:00,
2013-01-25 06:11:00,12.8,2.9,30.41,West,274,0.0,2.0,64,0.00,,---,0.00,VWS V14.00,2013-01-25 11:11:00,
2013-01-25 06:16:00,13.0,3.1,30.41,NW,306,1.0,5.0,64,0.00,,---,0.00,VWS V14.00,2013-01-25 11:16:00,
2013-01-25 06:21:00,13.1,2.9,30.40,NW,325,1.0,6.0,63,0.00,,---,0.00,VWS V14.00,2013-01-25 11:21:00,
2013-01-25 06:26:00,13.3,3.1,30.40,NW,325,0.0,6.0,63,0.00,,---,0.00,VWS V14.00,2013-01-25 11:26:00,
2013-01-25 06:31:00,13.3,3.1,30.40,NW,325,0.0,0.0,63,0.00,,---,0.00,VWS V14.00,2013-01-25 11:31:00,
2013-01-25 06:36:00,13.4,3.2,30.40,NW,325,0.0,4.0,63,0.00,,---,0.00,VWS V14.00,2013-01-25 11:36:00,
2013-01-25 06:41:00,13.3,2.7,30.40,NW,325,0.0,4.0,62,0.00,,---,0.00,VWS V14.00,2013-01-25 11:41:00,
2013-01-25 06:46:00,13.3,2.7,30.41,NW,325,0.0,4.0,62,0.00,,---,0.00,VWS V14.00,2013-01-25 11:46:00,
2013-01-25 06:51:00,13.3,3.1,30.41,NW,325,0.0,4.0,63,0.00,,---,0.00,VWS V14.00,2013-01-25 11:51:00,
2013-01-25 06:56:00,13.2,3.0,30.41,NW,325,0.0,0.0,63,0.00,,---,0.00,VWS V14.00,2013-01-25 11:56:00,
2013-01-25 07:01:00,13.1,2.9,30.41,NW,325,0.0,0.0,63,0.00,,---,0.00,VWS V14.00,2013-01-25 12:01:00,
2013-01-25 07:06:00,13.1,2.9,30.40,NW,325,0.0,0.0,63,0.00,,---,0.00,VWS V14.00,2013-01-25 12:06:00,
2013-01-25 07:11:00,13.0,3.1,30.41,NW,325,0.0,0.0,64,0.00,,---,0.00,VWS V14.00,2013-01-25 12:11:00,
2013-01-25 07:16:00,13.0,3.1,30.40,NW,325,0.0,0.0,64,0.00,,---,0.00,VWS V14.00,2013-01-25 12:16:00,
2013-01-25 07:21:00,13.1,3.6,30.40,NW,325,4.0,5.0,65,0.00,,---,0.00,VWS V14.00,2013-01-25 12:21:00,
2013-01-25 07:26:00,13.4,3.5,30.40,NW,325,0.0,0.0,64,0.00,,---,0.00,VWS V14.00,2013-01-25 12:26:00,
2013-01-25 07:31:00,13.5,3.6,30.40,NW,325,0.0,4.0,64,0.00,,---,0.00,VWS V14.00,2013-01-25 12:31:00,
2013-01-25 07:36:00,13.6,3.7,30.40,NW,325,0.0,4.0,64,0.00,,---,0.00,VWS V14.00,2013-01-25 12:36:00,
2013-01-25 07:41:00,13.7,3.8,30.40,NW,325,0.0,4.0,64,0.00,,---,0.00,VWS V14.00,2013-01-25 12:41:00,
2013-01-25 07:46:00,13.7,3.5,30.40,NW,325,0.0,4.0,63,0.00,,---,0.00,VWS V14.00,2013-01-25 12:46:00,
2013-01-25 07:51:00,13.9,4.0,30.40,NW,325,0.0,4.0,64,0.00,,---,0.00,VWS V14.00,2013-01-25 12:51:00,
2013-01-25 07:56:00,14.0,4.1,30.40,NW,325,0.0,0.0,64,0.00,,---,0.00,VWS V14.00,2013-01-25 12:56:00,
2013-01-25 08:01:00,14.1,3.8,30.40,NW,325,0.0,4.0,63,0.00,,---,0.00,VWS V14.00,2013-01-25 13:01:00,
2013-01-25 08:06:00,14.3,4.0,30.39,NW,325,0.0,4.0,63,0.00,,---,0.00,VWS V14.00,2013-01-25 13:06:00,
2013-01-25 08:11:00,14.4,4.1,30.39,NW,325,0.0,4.0,63,0.00,,---,0.00,VWS V14.00,2013-01-25 13:11:00,
2013-01-25 08:16:00,14.5,3.9,30.39,NW,325,2.0,4.0,62,0.00,,---,0.00,VWS V14.00,2013-01-25 13:16:00,
2013-01-25 08:21:00,14.6,4.0,30.39,NW,325,0.0,5.0,62,0.00,,---,0.00,VWS V14.00,2013-01-25 13:21:00,
2013-01-25 08:26:00,14.8,4.2,30.39,NW,325,0.0,2.0,62,0.00,,---,0.00,VWS V14.00,2013-01-25 13:26:00,
2013-01-25 08:31:00,14.9,4.2,30.39,NW,325,2.0,2.0,62,0.00,,---,0.00,VWS V14.00,2013-01-25 13:31:00,
2013-01-25 08:36:00,15.0,4.0,30.39,NW,325,0.0,2.0,61,0.00,,---,0.00,VWS V14.00,2013-01-25 13:36:00,
2013-01-25 08:41:00,15.2,4.2,30.40,NW,325,0.0,2.0,61,0.00,,---,0.00,VWS V14.00,2013-01-25 13:41:00,
2013-01-25 08:46:00,15.3,4.3,30.40,NW,325,5.0,5.0,61,0.00,,---,0.00,VWS V14.00,2013-01-25 13:46:00,
2013-01-25 08:51:00,15.5,4.5,30.40,NW,325,2.0,8.0,61,0.00,,---,0.00,VWS V14.00,2013-01-25 13:51:00,
2013-01-25 08:57:00,15.5,4.1,30.40,NNW,333,1.0,4.0,60,0.00,,---,0.00,VWS V14.00,2013-01-25 13:57:00,
2013-01-25 09:02:00,15.7,4.3,30.40,NNW,328,0.0,5.0,60,0.00,,---,0.00,VWS V14.00,2013-01-25 14:02:00,
2013-01-25 09:07:00,15.9,4.5,30.40,NNE,13,3.0,5.0,60,0.00,,---,0.00,VWS V14.00,2013-01-25 14:07:00,
2013-01-25 09:12:00,16.0,3.8,30.40,NNW,331,2.0,6.0,58,0.00,,---,0.00,VWS V14.00,2013-01-25 14:12:00,
2013-01-25 09:17:00,16.1,4.3,30.40,NNW,346,1.0,6.0,59,0.00,,---,0.00,VWS V14.00,2013-01-25 14:17:00,
2013-01-25 09:22:00,16.3,4.5,30.40,North,350,0.0,7.0,59,0.00,,---,0.00,VWS V14.00,2013-01-25 14:22:00,
2013-01-25 09:27:00,16.4,4.6,30.40,North,350,4.0,4.0,59,0.00,,---,0.00,VWS V14.00,2013-01-25 14:27:00,
2013-01-25 09:32:00,16.4,3.8,30.40,NNW,340,0.0,7.0,57,0.00,,---,0.00,VWS V14.00,2013-01-25 14:32:00,
2013-01-25 09:37:00,16.5,4.3,30.40,NNW,343,6.0,7.0,58,0.00,,---,0.00,VWS V14.00,2013-01-25 14:37:00,
2013-01-25 09:42:00,16.6,4.0,30.40,NNW,343,0.0,7.0,57,0.00,,---,0.00,VWS V14.00,2013-01-25 14:42:00,
2013-01-25 09:47:00,16.7,4.1,30.41,NNW,343,0.0,7.0,57,0.00,,---,0.00,VWS V14.00,2013-01-25 14:47:00,
2013-01-25 09:52:00,16.9,4.7,30.41,NNW,343,0.0,7.0,58,0.00,,---,0.00,VWS V14.00,2013-01-25 14:52:00,
2013-01-25 09:57:00,17.1,4.5,30.41,NNW,343,0.0,0.0,57,0.00,,---,0.00,VWS V14.00,2013-01-25 14:57:00,
2013-01-25 10:02:00,17.2,4.6,30.41,NNW,343,4.0,4.0,57,0.00,,---,0.00,VWS V14.00,2013-01-25 15:02:00,
2013-01-25 10:07:00,17.4,4.8,30.42,NNW,343,0.0,4.0,57,0.00,,---,0.00,VWS V14.00,2013-01-25 15:07:00,
2013-01-25 10:12:00,17.5,4.9,30.42,NNW,343,0.0,4.0,57,0.00,,---,0.00,VWS V14.00,2013-01-25 15:12:00,
2013-01-25 10:17:00,17.7,4.3,30.41,NNW,343,0.0,5.0,55,0.00,,---,0.00,VWS V14.00,2013-01-25 15:17:00,
2013-01-25 10:22:00,17.7,4.3,30.41,NNW,343,0.0,5.0,55,0.00,,---,0.00,VWS V14.00,2013-01-25 15:22:00,
2013-01-25 10:27:00,17.9,4.9,30.40,NNW,343,0.0,0.0,56,0.00,,---,0.00,VWS V14.00,2013-01-25 15:27:00,
2013-01-25 10:32:00,18.2,4.8,30.40,NNW,343,0.0,5.0,55,0.00,,---,0.00,VWS V14.00,2013-01-25 15:32:00,
2013-01-25 10:37:00,18.2,4.4,30.39,NNW,343,0.0,5.0,54,0.00,,---,0.00,VWS V14.00,2013-01-25 15:37:00,
2013-01-25 10:42:00,18.3,4.4,30.39,NNW,343,0.0,5.0,54,0.00,,---,0.00,VWS V14.00,2013-01-25 15:42:00,
2013-01-25 10:47:00,18.4,4.6,30.39,NNW,343,0.0,5.0,54,0.00,,---,0.00,VWS V14.00,2013-01-25 15:47:00,
2013-01-25 10:52:00,18.7,4.4,30.39,NNW,343,0.0,5.0,53,0.00,,---,0.00,VWS V14.00,2013-01-25 15:52:00,
2013-01-25 10:57:00,18.9,4.6,30.39,NNW,343,0.0,0.0,53,0.00,,---,0.00,VWS V14.00,2013-01-25 15:57:00,
2013-01-25 11:02:00,19.1,4.4,30.38,NNW,343,0.0,0.0,52,0.00,,---,0.00,VWS V14.00,2013-01-25 16:02:00,
2013-01-25 11:07:00,19.1,4.4,30.38,NNW,343,0.0,6.0,52,0.00,,---,0.00,VWS V14.00,2013-01-25 16:07:00,
2013-01-25 11:12:00,19.5,5.2,30.38,NNW,343,0.0,6.0,53,0.00,,---,0.00,VWS V14.00,2013-01-25 16:12:00,
2013-01-25 11:17:00,19.8,4.6,30.37,NNW,343,0.0,6.0,51,0.00,,---,0.00,VWS V14.00,2013-01-25 16:17:00,
2013-01-25 11:22:00,20.0,5.2,30.37,NNW,343,0.0,6.0,52,0.00,,---,0.00,VWS V14.00,2013-01-25 16:22:00,
2013-01-25 11:27:00,20.1,4.5,30.36,North,360,0.0,0.0,50,0.00,,---,0.00,VWS V14.00,2013-01-25 16:27:00,
2013-01-25 11:32:00,20.5,5.3,30.35,NNE,33,0.0,0.0,51,0.00,,---,0.00,VWS V14.00,2013-01-25 16:32:00,
2013-01-25 11:37:00,20.7,5.0,30.35,North,355,0.0,5.0,50,0.00,,---,0.00,VWS V14.00,2013-01-25 16:37:00,
2013-01-25 11:42:00,20.7,5.0,30.34,North,355,0.0,6.0,50,0.00,,---,0.00,VWS V14.00,2013-01-25 16:42:00,
2013-01-25 11:47:00,20.6,4.5,30.33,North,355,0.0,6.0,49,0.00,,---,0.00,VWS V14.00,2013-01-25 16:47:00,
2013-01-25 11:52:00,20.7,4.6,30.33,North,355,4.0,6.0,49,0.00,,---,0.00,VWS V14.00,2013-01-25 16:52:00,
2013-01-25 11:57:00,20.6,4.0,30.32,North,355,0.0,0.0,48,0.00,,---,0.00,VWS V14.00,2013-01-25 16:57:00,
2013-01-25 12:02:00,20.6,4.0,30.32,North,355,0.0,4.0,48,0.00,,---,0.00,VWS V14.00,2013-01-25 17:02:00,
2013-01-25 12:07:00,20.7,4.6,30.32,North,355,0.0,4.0,49,0.00,,---,0.00,VWS V14.00,2013-01-25 17:07:00,
2013-01-25 12:12:00,21.0,4.8,30.31,North,355,0.0,4.0,49,0.00,,---,0.00,VWS V14.00,2013-01-25 17:12:00,
2013-01-25 12:17:00,21.4,4.8,30.31,ENE,69,0.0,4.0,48,0.00,,---,0.00,VWS V14.00,2013-01-25 17:17:00,
2013-01-25 12:22:00,21.6,5.0,30.31,ENE,69,0.0,4.0,48,0.00,,---,0.00,VWS V14.00,2013-01-25 17:22:00,
2013-01-25 12:27:00,21.7,4.6,30.31,ENE,69,2.0,2.0,47,0.00,,---,0.00,VWS V14.00,2013-01-25 17:27:00,
2013-01-25 12:32:00,21.7,4.6,30.30,ENE,69,0.0,2.0,47,0.00,,---,0.00,VWS V14.00,2013-01-25 17:32:00,
2013-01-25 12:37:00,21.8,4.7,30.30,ENE,69,0.0,2.0,47,0.00,,---,0.00,VWS V14.00,2013-01-25 17:37:00,
2013-01-25 12:42:00,22.1,5.0,30.30,ENE,69,0.0,2.0,47,0.00,,---,0.00,VWS V14.00,2013-01-25 17:42:00,
2013-01-25 12:47:00,22.2,5.1,30.30,ENE,69,0.0,2.0,47,0.00,,---,0.00,VWS V14.00,2013-01-25 17:47:00,
2013-01-25 12:52:00,22.4,5.2,30.29,SSE,161,0.0,4.0,47,0.00,,---,0.00,VWS V14.00,2013-01-25 17:52:00,
2013-01-25 12:57:00,22.6,5.4,30.29,SSE,160,0.0,0.0,47,0.00,,---,0.00,VWS V14.00,2013-01-25 17:57:00,
2013-01-25 13:02:00,22.7,5.0,30.28,South,170,0.0,4.0,46,0.00,,---,0.00,VWS V14.00,2013-01-25 18:02:00,
2013-01-25 13:07:00,22.6,4.5,30.28,West,268,1.0,4.0,45,0.00,,---,0.00,VWS V14.00,2013-01-25 18:07:00,
2013-01-25 13:12:00,22.6,4.5,30.28,West,268,0.0,4.0,45,0.00,,---,0.00,VWS V14.00,2013-01-25 18:12:00,
2013-01-25 13:18:00,22.6,4.9,30.27,West,268,0.0,4.0,46,0.00,,---,0.00,VWS V14.00,2013-01-25 18:18:00,
2013-01-25 13:23:00,22.7,5.0,30.27,West,268,0.0,4.0,46,0.00,,---,0.00,VWS V14.00,2013-01-25 18:23:00,
2013-01-25 13:28:00,22.7,4.1,30.26,West,280,0.0,0.0,44,0.00,,---,0.00,VWS V14.00,2013-01-25 18:28:00,
2013-01-25 13:33:00,22.6,4.0,30.26,West,280,0.0,0.0,44,0.00,,---,0.00,VWS V14.00,2013-01-25 18:33:00,
2013-01-25 13:38:00,22.6,4.0,30.25,West,280,0.0,0.0,44,0.00,,---,0.00,VWS V14.00,2013-01-25 18:38:00,
2013-01-25 13:43:00,22.8,4.2,30.25,West,280,0.0,0.0,44,0.00,,---,0.00,VWS V14.00,2013-01-25 18:43:00,
2013-01-25 13:48:00,22.9,4.3,30.25,West,280,0.0,0.0,44,0.00,,---,0.00,VWS V14.00,2013-01-25 18:48:00,
2013-01-25 13:53:00,23.0,4.8,30.25,West,280,0.0,0.0,45,0.00,,---,0.00,VWS V14.00,2013-01-25 18:53:00,
2013-01-25 13:58:00,23.3,5.1,30.25,West,280,0.0,0.0,45,0.00,,---,0.00,VWS V14.00,2013-01-25 18:58:00,
2013-01-25 14:03:00,23.4,4.7,30.25,West,280,0.0,0.0,44,0.00,,---,0.00,VWS V14.00,2013-01-25 19:03:00,
2013-01-25 14:08:00,23.4,4.7,30.25,West,280,0.0,0.0,44,0.00,,---,0.00,VWS V14.00,2013-01-25 19:08:00,
2013-01-25 14:13:00,23.4,4.7,30.25,West,280,0.0,0.0,44,0.00,,---,0.00,VWS V14.00,2013-01-25 19:13:00,
2013-01-25 14:18:00,23.4,4.7,30.24,West,280,0.0,0.0,44,0.00,,---,0.00,VWS V14.00,2013-01-25 19:18:00,
2013-01-25 14:23:00,23.6,4.9,30.24,SSW,206,0.0,2.0,44,0.00,,---,0.00,VWS V14.00,2013-01-25 19:23:00,
2013-01-25 14:28:00,23.6,4.4,30.24,West,269,0.0,0.0,43,0.00,,---,0.00,VWS V14.00,2013-01-25 19:28:00,
2013-01-25 14:33:00,23.6,4.4,30.24,SSW,213,2.0,5.0,43,0.00,,---,0.00,VWS V14.00,2013-01-25 19:33:00,
2013-01-25 14:38:00,23.8,5.1,30.23,SSW,213,0.0,5.0,44,0.00,,---,0.00,VWS V14.00,2013-01-25 19:38:00,
2013-01-25 14:43:00,24.0,4.8,30.24,SSW,213,0.0,5.0,43,0.00,,---,0.00,VWS V14.00,2013-01-25 19:43:00,
2013-01-25 14:48:00,24.0,4.8,30.22,WNW,288,0.0,5.0,43,0.00,,---,0.00,VWS V14.00,2013-01-25 19:48:00,
2013-01-25 14:53:00,24.0,4.8,30.22,SSW,205,4.0,5.0,43,0.00,,---,0.00,VWS V14.00,2013-01-25 19:53:00,
2013-01-25 14:58:00,24.2,4.4,30.22,SSW,198,3.0,5.0,42,0.00,,---,0.00,VWS V14.00,2013-01-25 19:58:00,
2013-01-25 15:03:00,24.2,4.4,30.21,SSW,198,0.0,5.0,42,0.00,,---,0.00,VWS V14.00,2013-01-25 20:03:00,
2013-01-25 15:08:00,24.1,4.3,30.21,SSW,198,0.0,5.0,42,0.00,,---,0.00,VWS V14.00,2013-01-25 20:08:00,
2013-01-25 15:13:00,24.2,4.9,30.21,South,178,4.0,5.0,43,0.00,,---,0.00,VWS V14.00,2013-01-25 20:13:00,
2013-01-25 15:18:00,24.3,5.0,30.21,South,178,0.0,5.0,43,0.00,,---,0.00,VWS V14.00,2013-01-25 20:18:00,
2013-01-25 15:23:00,24.4,4.6,30.21,South,178,2.0,5.0,42,0.00,,---,0.00,VWS V14.00,2013-01-25 20:23:00,
2013-01-25 15:28:00,24.4,4.6,30.21,South,178,2.0,6.0,42,0.00,,---,0.00,VWS V14.00,2013-01-25 20:28:00,
2013-01-25 15:33:00,24.4,5.1,30.21,South,178,2.0,6.0,43,0.00,,---,0.00,VWS V14.00,2013-01-25 20:33:00,
2013-01-25 15:38:00,24.4,4.6,30.21,South,176,0.0,6.0,42,0.00,,---,0.00,VWS V14.00,2013-01-25 20:38:00,
2013-01-25 15:43:00,24.4,4.6,30.21,South,176,0.0,6.0,42,0.00,,---,0.00,VWS V14.00,2013-01-25 20:43:00,
2013-01-25 15:48:00,24.3,4.5,30.20,South,176,0.0,6.0,42,0.00,,---,0.00,VWS V14.00,2013-01-25 20:48:00,
2013-01-25 15:53:00,24.3,4.5,30.20,South,190,3.0,6.0,42,0.00,,---,0.00,VWS V14.00,2013-01-25 20:53:00,
2013-01-25 15:58:00,24.3,4.5,30.20,SSW,194,0.0,0.0,42,0.00,,---,0.00,VWS V14.00,2013-01-25 20:58:00,
2013-01-25 16:03:00,24.3,4.5,30.20,SSW,194,0.0,0.0,42,0.00,,---,0.00,VWS V14.00,2013-01-25 21:03:00,
2013-01-25 16:09:00,24.3,4.5,30.19,SSW,194,0.0,3.0,42,0.00,,---,0.00,VWS V14.00,2013-01-25 21:09:00,
2013-01-25 16:14:00,24.3,4.5,30.20,SSW,194,0.0,3.0,42,0.00,,---,0.00,VWS V14.00,2013-01-25 21:14:00,
2013-01-25 16:19:00,24.3,4.5,30.19,SSW,194,0.0,3.0,42,0.00,,---,0.00,VWS V14.00,2013-01-25 21:19:00,
2013-01-25 16:24:00,24.3,4.5,30.19,SSW,194,0.0,3.0,42,0.00,,---,0.00,VWS V14.00,2013-01-25 21:24:00,
2013-01-25 16:29:00,24.2,4.4,30.19,SSW,194,2.0,4.0,42,0.00,,---,0.00,VWS V14.00,2013-01-25 21:29:00,
2013-01-25 16:34:00,24.2,4.9,30.19,SSW,195,0.0,4.0,43,0.00,,---,0.00,VWS V14.00,2013-01-25 21:34:00,
2013-01-25 16:39:00,24.2,4.9,30.18,South,173,1.0,6.0,43,0.00,,---,0.00,VWS V14.00,2013-01-25 21:39:00,
2013-01-25 16:44:00,24.2,5.4,30.18,South,173,0.0,6.0,44,0.00,,---,0.00,VWS V14.00,2013-01-25 21:44:00,
2013-01-25 16:49:00,24.2,5.4,30.18,South,173,0.0,6.0,44,0.00,,---,0.00,VWS V14.00,2013-01-25 21:49:00,
2013-01-25 16:54:00,24.2,5.9,30.19,South,183,3.0,6.0,45,0.00,,---,0.00,VWS V14.00,2013-01-25 21:54:00,
2013-01-25 16:59:00,24.2,5.4,30.18,South,169,6.0,6.0,44,0.00,,---,0.00,VWS V14.00,2013-01-25 21:59:00,
2013-01-25 17:04:00,24.2,5.9,30.18,South,186,1.0,7.0,45,0.00,,---,0.00,VWS V14.00,2013-01-25 22:04:00,
2013-01-25 17:09:00,24.1,8.2,30.17,South,175,0.0,7.0,50,0.00,,---,0.00,VWS V14.00,2013-01-25 22:09:00,
2013-01-25 17:14:00,24.0,8.5,30.17,SSW,212,0.0,7.0,51,0.00,,---,0.00,VWS V14.00,2013-01-25 22:14:00,
2013-01-25 17:19:00,23.9,8.4,30.17,South,179,0.0,7.0,51,0.00,,---,0.00,VWS V14.00,2013-01-25 22:19:00,
2013-01-25 17:24:00,23.8,9.6,30.17,SSW,209,1.0,8.0,54,0.00,,---,0.00,VWS V14.00,2013-01-25 22:24:00,
2013-01-25 17:29:00,23.6,9.4,30.17,SW,219,5.0,9.0,54,0.00,,---,0.00,VWS V14.00,2013-01-25 22:29:00,
2013-01-25 17:34:00,23.4,12.3,30.17,South,187,2.0,12.0,62,0.00,,---,0.00,VWS V14.00,2013-01-25 22:34:00,
2013-01-25 17:39:00,22.9,13.6,30.17,SSW,211,5.0,12.0,67,0.00,,---,0.00,VWS V14.00,2013-01-25 22:39:00,
2013-01-25 17:44:00,22.4,14.8,30.16,South,189,3.0,12.0,72,0.00,,---,0.00,VWS V14.00,2013-01-25 22:44:00,
2013-01-25 17:49:00,22.0,15.0,30.16,SSW,209,0.0,12.0,74,0.00,,---,0.00,VWS V14.00,2013-01-25 22:49:00,
2013-01-25 17:54:00,21.7,15.6,30.16,South,178,0.0,12.0,77,0.00,,---,0.00,VWS V14.00,2013-01-25 22:54:00,
2013-01-25 17:59:00,21.6,15.8,30.16,South,178,0.0,0.0,78,0.00,,---,0.00,VWS V14.00,2013-01-25 22:59:00,
2013-01-25 18:04:00,21.4,15.9,30.15,South,178,0.0,0.0,79,0.00,,---,0.00,VWS V14.00,2013-01-25 23:04:00,
2013-01-25 18:09:00,21.3,16.1,30.15,South,178,0.0,0.0,80,0.00,,---,0.00,VWS V14.00,2013-01-25 23:09:00,
2013-01-25 18:14:00,21.2,16.0,30.14,South,178,0.0,5.0,80,0.00,,---,0.00,VWS V14.00,2013-01-25 23:14:00,
2013-01-25 18:19:00,21.1,15.9,30.14,South,178,0.0,5.0,80,0.00,,---,0.00,VWS V14.00,2013-01-25 23:19:00,
2013-01-25 18:24:00,20.9,15.7,30.14,South,178,0.0,5.0,80,0.00,,---,0.00,VWS V14.00,2013-01-25 23:24:00,
2013-01-25 18:29:00,20.7,15.5,30.14,South,178,0.0,0.0,80,0.00,,---,0.00,VWS V14.00,2013-01-25 23:29:00,
2013-01-25 18:34:00,20.5,15.3,30.14,South,178,0.0,0.0,80,0.00,,---,0.00,VWS V14.00,2013-01-25 23:34:00,
2013-01-25 18:39:00,20.5,15.6,30.14,South,178,0.0,0.0,81,0.00,,---,0.00,VWS V14.00,2013-01-25 23:39:00,
2013-01-25 18:44:00,20.5,15.6,30.14,South,178,0.0,0.0,81,0.00,,---,0.00,VWS V14.00,2013-01-25 23:44:00,
2013-01-25 18:49:00,20.4,15.5,30.14,South,178,0.0,0.0,81,0.00,,---,0.00,VWS V14.00,2013-01-25 23:49:00,
2013-01-25 18:54:00,20.4,15.5,30.14,South,178,0.0,4.0,81,0.00,,---,0.00,VWS V14.00,2013-01-25 23:54:00,
2013-01-25 18:59:00,20.3,15.4,30.14,South,178,0.0,0.0,81,0.00,,---,0.00,VWS V14.00,2013-01-25 23:59:00,
2013-01-25 19:04:00,20.2,15.3,30.14,South,178,0.0,0.0,81,0.00,,---,0.00,VWS V14.00,2013-01-26 00:04:00,
2013-01-25 19:09:00,20.2,15.6,30.14,South,178,0.0,0.0,82,0.00,,---,0.00,VWS V14.00,2013-01-26 00:09:00,
2013-01-25 19:14:00,20.2,15.6,30.14,South,178,0.0,0.0,82,0.00,,---,0.00,VWS V14.00,2013-01-26 00:14:00,
2013-01-25 19:20:00,20.2,17.7,30.13,South,178,0.0,0.0,90,0.00,,---,0.00,VWS V14.00,2013-01-26 00:20:00,
2013-01-25 19:25:00,20.1,15.8,30.13,South,178,0.0,0.0,83,0.00,,---,0.00,VWS V14.00,2013-01-26 00:25:00,
2013-01-25 19:29:00,20.1,15.8,30.13,South,178,0.0,0.0,83,0.00,,---,0.00,VWS V14.00,2013-01-26 00:29:00,
2013-01-25 19:34:00,20.0,15.7,30.13,South,178,0.0,0.0,83,0.00,,---,0.00,VWS V14.00,2013-01-26 00:34:00,
2013-01-25 19:39:00,20.0,15.9,30.13,South,178,0.0,0.0,84,0.00,,---,0.00,VWS V14.00,2013-01-26 00:39:00,
2013-01-25 19:44:00,20.0,15.9,30.12,South,178,0.0,0.0,84,0.00,,---,0.00,VWS V14.00,2013-01-26 00:44:00,
2013-01-25 19:49:00,20.0,15.9,30.12,South,178,0.0,0.0,84,0.00,,---,0.00,VWS V14.00,2013-01-26 00:49:00,
2013-01-25 19:55:00,20.0,15.9,30.12,South,178,0.0,0.0,84,0.00,,---,0.00,VWS V14.00,2013-01-26 00:55:00,
2013-01-25 20:00:00,20.0,15.9,30.12,South,178,0.0,0.0,84,0.00,,---,0.00,VWS V14.00,2013-01-26 01:00:00,
2013-01-25 20:05:00,20.0,15.9,30.12,West,275,2.0,5.0,84,0.00,,---,0.00,VWS V14.00,2013-01-26 01:05:00,
2013-01-25 20:10:00,19.9,15.9,30.12,West,275,0.0,5.0,84,0.00,,---,0.00,VWS V14.00,2013-01-26 01:10:00,
2013-01-25 20:15:00,19.9,15.9,30.12,West,275,0.0,5.0,84,0.00,,---,0.00,VWS V14.00,2013-01-26 01:15:00,
2013-01-25 20:20:00,19.8,15.8,30.12,West,275,0.0,5.0,84,0.00,,---,0.00,VWS V14.00,2013-01-26 01:20:00,
2013-01-25 20:25:00,19.8,15.8,30.11,West,275,0.0,5.0,84,0.00,,---,0.00,VWS V14.00,2013-01-26 01:25:00,
2013-01-25 20:30:00,19.8,15.8,30.11,West,275,0.0,0.0,84,0.00,,---,0.00,VWS V14.00,2013-01-26 01:30:00,
2013-01-25 20:35:00,19.8,15.8,30.11,West,275,0.0,0.0,84,0.00,,---,0.00,VWS V14.00,2013-01-26 01:35:00,
2013-01-25 20:40:00,19.8,15.8,30.11,West,275,0.0,0.0,84,0.00,,---,0.00,VWS V14.00,2013-01-26 01:40:00,
2013-01-25 20:45:00,19.8,15.8,30.11,West,275,0.0,0.0,84,0.00,,---,0.00,VWS V14.00,2013-01-26 01:45:00,
2013-01-25 20:50:00,19.8,15.8,30.11,West,275,0.0,0.0,84,0.00,,---,0.00,VWS V14.00,2013-01-26 01:50:00,
2013-01-25 20:55:00,19.8,15.8,30.10,West,275,0.0,0.0,84,0.00,,---,0.00,VWS V14.00,2013-01-26 01:55:00,
2013-01-25 21:00:00,19.8,15.8,30.10,West,275,0.0,0.0,84,0.00,,---,0.00,VWS V14.00,2013-01-26 02:00:00,
2013-01-25 21:05:00,19.7,15.7,30.10,West,275,0.0,0.0,84,0.00,,---,0.00,VWS V14.00,2013-01-26 02:05:00,
2013-01-25 21:10:00,19.7,15.7,30.10,West,275,0.0,0.0,84,0.00,,---,0.00,VWS V14.00,2013-01-26 02:10:00,
2013-01-25 21:15:00,19.6,15.6,30.09,West,275,0.0,0.0,84,0.00,,---,0.00,VWS V14.00,2013-01-26 02:15:00,
2013-01-25 21:20:00,19.5,15.5,30.10,West,275,0.0,0.0,84,0.00,,---,0.00,VWS V14.00,2013-01-26 02:20:00,
2013-01-25 21:25:00,19.3,15.0,30.09,West,275,0.0,0.0,83,0.00,,---,0.00,VWS V14.00,2013-01-26 02:25:00,
2013-01-25 21:30:00,19.1,14.8,30.09,West,275,0.0,0.0,83,0.00,,---,0.00,VWS V14.00,2013-01-26 02:30:00,
2013-01-25 21:35:00,18.9,14.6,30.09,West,275,0.0,0.0,83,0.00,,---,0.00,VWS V14.00,2013-01-26 02:35:00,
2013-01-25 21:40:00,18.7,14.4,30.09,West,275,0.0,0.0,83,0.00,,---,0.00,VWS V14.00,2013-01-26 02:40:00,
2013-01-25 21:45:00,18.5,14.2,30.09,West,275,0.0,0.0,83,0.00,,---,0.00,VWS V14.00,2013-01-26 02:45:00,
2013-01-25 21:50:00,18.4,14.1,30.09,West,275,0.0,0.0,83,0.00,,---,0.00,VWS V14.00,2013-01-26 02:50:00,
2013-01-25 21:55:00,18.2,13.9,30.09,West,275,0.0,0.0,83,0.00,,---,0.00,VWS V14.00,2013-01-26 02:55:00,
2013-01-25 22:00:00,18.0,13.7,30.09,West,275,0.0,0.0,83,0.00,,---,0.00,VWS V14.00,2013-01-26 03:00:00,
2013-01-25 22:05:00,17.8,13.5,30.08,West,275,0.0,0.0,83,0.00,,---,0.00,VWS V14.00,2013-01-26 03:05:00,
2013-01-25 22:10:00,17.5,13.2,30.08,West,275,0.0,0.0,83,0.00,,---,0.00,VWS V14.00,2013-01-26 03:10:00,
2013-01-25 22:15:00,17.2,12.9,30.08,West,275,0.0,0.0,83,0.00,,---,0.00,VWS V14.00,2013-01-26 03:15:00,
2013-01-25 22:20:00,17.0,12.7,30.08,West,275,0.0,0.0,83,0.00,,---,0.00,VWS V14.00,2013-01-26 03:20:00,
2013-01-25 22:25:00,16.8,12.8,30.08,West,275,0.0,0.0,84,0.00,,---,0.00,VWS V14.00,2013-01-26 03:25:00,
2013-01-25 22:30:00,16.7,12.7,30.08,West,275,0.0,0.0,84,0.00,,---,0.00,VWS V14.00,2013-01-26 03:30:00,
2013-01-25 22:35:00,16.6,12.6,30.08,West,275,0.0,0.0,84,0.00,,---,0.00,VWS V14.00,2013-01-26 03:35:00,
2013-01-25 22:40:00,16.4,12.4,30.08,West,275,0.0,0.0,84,0.00,,---,0.00,VWS V14.00,2013-01-26 03:40:00,
2013-01-25 22:45:00,16.2,12.2,30.08,West,275,0.0,0.0,84,0.00,,---,0.00,VWS V14.00,2013-01-26 03:45:00,
2013-01-25 22:50:00,15.9,11.9,30.08,West,275,0.0,0.0,84,0.00,,---,0.00,VWS V14.00,2013-01-26 03:50:00,
2013-01-25 22:56:00,15.7,11.7,30.08,West,275,0.0,0.0,84,0.00,,---,0.00,VWS V14.00,2013-01-26 03:56:00,
2013-01-25 23:01:00,15.6,11.6,30.08,West,275,0.0,0.0,84,0.00,,---,0.00,VWS V14.00,2013-01-26 04:01:00,
2013-01-25 23:06:00,15.4,11.4,30.08,West,275,0.0,0.0,84,0.00,,---,0.00,VWS V14.00,2013-01-26 04:06:00,
2013-01-25 23:11:00,15.2,11.2,30.08,West,275,0.0,0.0,84,0.00,,---,0.00,VWS V14.00,2013-01-26 04:11:00,
2013-01-25 23:16:00,15.0,11.3,30.08,West,275,0.0,0.0,85,0.00,,---,0.00,VWS V14.00,2013-01-26 04:16:00,
2013-01-25 23:21:00,14.8,11.1,30.08,West,275,0.0,0.0,85,0.00,,---,0.00,VWS V14.00,2013-01-26 04:21:00,
2013-01-25 23:26:00,14.6,10.9,30.08,West,275,0.0,0.0,85,0.00,,---,0.00,VWS V14.00,2013-01-26 04:26:00,
2013-01-25 23:31:00,14.5,10.8,30.07,West,275,0.0,0.0,85,0.00,,---,0.00,VWS V14.00,2013-01-26 04:31:00,
2013-01-25 23:36:00,14.4,10.7,30.07,West,275,0.0,0.0,85,0.00,,---,0.00,VWS V14.00,2013-01-26 04:36:00,
2013-01-25 23:41:00,14.4,10.7,30.08,West,275,0.0,0.0,85,0.00,,---,0.00,VWS V14.00,2013-01-26 04:41:00,
2013-01-25 23:46:00,14.3,10.6,30.08,West,275,0.0,0.0,85,0.00,,---,0.00,VWS V14.00,2013-01-26 04:46:00,
2013-01-25 23:51:00,14.2,10.8,30.08,West,275,0.0,0.0,86,0.00,,---,0.00,VWS V14.00,2013-01-26 04:51:00,
2013-01-25 23:56:00,14.1,10.7,30.07,West,275,0.0,0.0,86,0.00,,---,0.00,VWS V14.00,2013-01-26 04:56:00,